Chicopee, MA

7:21 PM EDT on April 26, 2018 (GMT -0400)
Westover Air Reserve Base / Metropolitan Airport

Weather History for KCEF - July, 2013

Change the Weather History Date:

Monday, July 8, 2013

  Actual Average Record
Temperature  
Mean Temperature 78 °F -  
Max Temperature 88 °F 79 °F 92 °F (2010)
Min Temperature 69 °F 59 °F 48 °F (2000)
Cooling Degree Days 14    
Growing Degree Days 28 (Base 50)    
Moisture  
Dew Point 71 °F    
Average Humidity 80    
Maximum Humidity 100    
Minimum Humidity 54    
Precipitation  
Precipitation 0.04 in - - ()
Sea Level Pressure  
Sea Level Pressure 29.99 in    
Wind  
Wind Speed 7 mph (West)    
Max Wind Speed 21 mph    
Max Gust Speed 26 mph    
Visibility 10 miles    
Events Rain , Thunderstorm    
Averages and records for this station are not official NWS values.
T = Trace of Precipitation, MM = Missing Value Source: NWS Daily Summary

Daily Weather History Graph

Daily Weather History Graph

Search for Another Location

Airport or City:

Astronomy

Jul. 08, 2013 Rise Set
Actual Time 5:22 AM EDT 8:28 PM EDT
Civil Twilight 4:48 AM EDT 9:02 PM EDT
Nautical Twilight 4:04 AM EDT 9:45 PM EDT
Astronomical Twilight 3:12 AM EDT 10:37 PM EDT
Moon 5:50 AM EDT (7/8) 8:26 PM EDT (7/8)
Length of Visible Light 16h 14m
Length of Day
15h 06m
New Moon, 0% of the Moon is Illuminated
Jul 8
New Moon
Jul 15
First Quarter
Jul 22
Full
Jul 29
Last Quarter
Aug 6
New

Hourly Weather History & Observations

Time (EDT) Temp. Heat Index Dew Point Humidity Pressure Visibility Wind Dir Wind Speed Gust Speed Precip Events Conditions
5:33 AM 69.8 °F - 69.8 °F 100% 29.95 in - South 3.5 mph - N/A   Scattered Clouds
5:55 AM 71.6 °F - 71.6 °F 100% 29.95 in 10.0 mi SSW 6.9 mph - N/A   Mostly Cloudy
6:55 AM 73.4 °F - 73.4 °F 100% 29.95 in 10.0 mi South 5.8 mph - N/A   Scattered Clouds
7:55 AM 77.5 °F - 74.7 °F 91% 29.97 in 10.0 mi SW 5.8 mph - N/A   Clear
8:55 AM 79.3 °F - 71.6 °F 77% 29.99 in 10.0 mi West 6.9 mph - N/A   Scattered Clouds
9:55 AM 81.5 °F 85.1 °F 70.2 °F 68% 29.98 in 10.0 mi West 9.2 mph - N/A   Partly Cloudy
10:55 AM 83.1 °F 86.8 °F 69.4 °F 63% 29.99 in 10.0 mi WSW 9.2 mph - N/A   Scattered Clouds
11:55 AM 84.6 °F 87.9 °F 68.5 °F 58% 29.99 in 10.0 mi WNW 10.4 mph 16.1 mph N/A   Scattered Clouds
12:55 PM 86.4 °F 90.0 °F 68.4 °F 55% 29.99 in 10.0 mi West 9.2 mph - N/A   Scattered Clouds
1:55 PM 87.1 °F 91.6 °F 69.4 °F 56% 29.98 in 10.0 mi WNW 10.4 mph - N/A   Scattered Clouds
2:58 PM 88.2 °F 92.9 °F 69.8 °F 54% 29.98 in 10.0 mi WSW 8.1 mph - N/A   Mostly Cloudy
3:58 PM 83.8 °F 88.6 °F 71.1 °F 65% 29.99 in 10.0 mi WNW 20.7 mph 26.5 mph N/A   Mostly Cloudy
4:07 PM 78.8 °F - 71.6 °F 78% 29.98 in 10.0 mi WNW 13.8 mph - N/A Rain Light Rain
4:17 PM 78.8 °F - 71.6 °F 78% 29.97 in 10.0 mi NNW 9.2 mph - N/A   Mostly Cloudy
4:58 PM 82.4 °F 86.7 °F 70.7 °F 68% 29.99 in 10.0 mi NNW 4.6 mph - 0.00 in   Scattered Clouds
5:58 PM 84.2 °F 87.9 °F 69.1 °F 60% 29.98 in 10.0 mi WNW 5.8 mph - N/A   Scattered Clouds
6:58 PM 81.9 °F 85.2 °F 69.3 °F 65% 29.99 in 10.0 mi NW 4.6 mph - N/A   Scattered Clouds
7:58 PM 81.3 °F 85.0 °F 70.3 °F 69% 30.00 in 10.0 mi NE 2.3 mph - N/A   Scattered Clouds
8:58 PM 75.0 °F - 73.8 °F 96% 30.01 in 10.0 mi ENE 4.6 mph - N/A   Scattered Clouds
9:34 PM 75.2 °F - 75.2 °F 100% 30.01 in 10.0 mi Calm Calm - N/A Thunderstorm Mostly Cloudy
9:58 PM 74.8 °F - 74.5 °F 99% 30.04 in 10.0 mi SSW 11.5 mph - N/A Thunderstorm Mostly Cloudy
10:10 PM 77.0 °F - 73.4 °F 89% 30.03 in 9.0 mi SSW 11.5 mph - N/A Rain , Thunderstorm Light Thunderstorms and Rain
10:36 PM 73.4 °F - 73.4 °F 100% 30.03 in 10.0 mi SSW 8.1 mph - N/A Rain Light Rain
10:58 PM 73.4 °F - 73.0 °F 99% 30.05 in 6.0 mi SSE 4.6 mph - 0.03 in Rain Light Rain
11:13 PM 73.4 °F - 73.4 °F 100% 30.04 in 10.0 mi ESE 3.5 mph - N/A   Overcast
11:58 PM 71.4 °F - 71.2 °F 99% 30.03 in 10.0 mi NNE 4.6 mph - 0.01 in   Mostly Cloudy